Markham, Ontario

4:25 PM EDT on October 21, 2017 (GMT -0400)
Markham

Weather History for CYKZ - November, 2012

Change the Weather History Date:

Tuesday, November 13, 2012

  Actual Average Record
Temperature  
Mean Temperature 37 °F -  
Max Temperature 41 °F 43 °F 62 °F (2005)
Min Temperature 33 °F 29 °F 17 °F (1997)
Degree Days  
Heating Degree Days 28    
Moisture  
Dew Point 23 °F    
Average Humidity 57    
Maximum Humidity 75    
Minimum Humidity 35    
Precipitation  
Precipitation 0.00 in - - ()
Sea Level Pressure  
Sea Level Pressure 30.38 in    
Wind  
Wind Speed 7 mph ()    
Max Wind Speed 13 mph    
Max Gust Speed 20 mph    
Visibility 14.8 miles    
Events Snow    
Averages and records for this station are not official NWS values.
T = Trace of Precipitation, MM = Missing Value Source: Averaged Metar Reports

Daily Weather History Graph

Daily Weather History Graph

Search for Another Location

Airport or City:

Trip Planner

Search our weather history database for the weather conditions in past years. The results will help you decide how hot, cold, wet, or windy it might be!

Date:

Astronomy

Nov. 13, 2012 Rise Set
Actual Time 7:10 AM EST 4:53 PM EST
Civil Twilight 6:39 AM EST 5:24 PM EST
Nautical Twilight 6:04 AM EST 5:58 PM EST
Astronomical Twilight 5:30 AM EST 6:32 PM EST
Moon 6:46 AM EST (11/13) 4:43 PM EST (11/13)
Length of Visible Light 10h 44m
Length of Day
9h 42m
Waning Crescent, 0% of the Moon is Illuminated
Nov 13
Waning Crescent
Nov 13
New
Nov 20
First Quarter
Nov 28
Full
Dec 6
Last Quarter

Hourly Weather History & Observations

Time (EST) Temp. Windchill Dew Point Humidity Pressure Visibility Wind Dir Wind Speed Gust Speed Precip Events Conditions
12:00 AM 37.4 °F 30.3 °F 26.6 °F 65% 30.17 in 15.0 mi West 10.4 mph 19.6 mph N/A   Overcast
1:00 AM 37 °F - 25 °F 49% 30.19 in 15 mi WSW 11.5 mph - -   Partly Cloudy
1:00 AM 37.4 °F 30.8 °F 24.8 °F 60% 30.19 in 15.0 mi WSW 9.2 mph 19.6 mph N/A   Overcast
2:00 AM 35.6 °F 29.9 °F 23.0 °F 60% 30.21 in 15.0 mi WSW 6.9 mph 18.4 mph N/A   Overcast
3:00 AM 35.6 °F 29.9 °F 24.8 °F 65% 30.22 in 15.0 mi WSW 6.9 mph - N/A   Overcast
4:00 AM 35.6 °F 27.1 °F 24.8 °F 65% 30.23 in 15.0 mi WSW 12.7 mph - N/A Snow Light Snow
5:00 AM 35.6 °F 29.2 °F 26.6 °F 70% 30.25 in 12.0 mi West 8.1 mph - N/A Snow Light Snow
6:00 AM 33.8 °F 27.7 °F 26.6 °F 75% 30.28 in 12.0 mi West 6.9 mph - N/A Snow Light Snow
7:00 AM 34 °F - 23 °F 52% 30.32 in 15 mi West 6.9 mph - - Snow Light Snow
7:00 AM 33.8 °F 27.7 °F 23.0 °F 65% 30.32 in 15.0 mi West 6.9 mph - N/A   Overcast
8:00 AM 33.8 °F 29.6 °F 21.2 °F 60% 30.35 in 15.0 mi WSW 4.6 mph - N/A   Overcast
9:00 AM 35.6 °F 29.2 °F 21.2 °F 56% 30.38 in 15.0 mi West 8.1 mph - N/A   Overcast
10:00 AM 37.4 °F 31.4 °F 23.0 °F 56% 30.40 in 15.0 mi WSW 8.1 mph - N/A   Mostly Cloudy
11:00 AM 35.6 °F 30.7 °F 19.4 °F 52% 30.42 in 15.0 mi West 5.8 mph - N/A   Mostly Cloudy
12:00 PM 37.4 °F 33.8 °F 19.4 °F 48% 30.41 in 15.0 mi NW 4.6 mph - N/A   Mostly Cloudy
1:00 PM 37 °F - 20 °F 37% 30.41 in 15 mi West 6.9 mph - -   Mostly Cloudy
1:00 PM 37.4 °F 32.8 °F 21.2 °F 52% 30.41 in 15.0 mi West 5.8 mph - N/A   Mostly Cloudy
2:00 PM 37.4 °F 32.1 °F 21.2 °F 52% 30.42 in 15.0 mi WNW 6.9 mph - N/A   Mostly Cloudy
3:00 PM 37.4 °F 32.8 °F 19.4 °F 48% 30.43 in 15.0 mi West 5.8 mph - N/A   Mostly Cloudy
4:00 PM 35.6 °F 30.7 °F 21.2 °F 56% 30.45 in 15.0 mi West 5.8 mph - N/A   Mostly Cloudy
5:00 PM 35.6 °F 32.8 °F 21.2 °F 56% 30.46 in 15.0 mi West 3.5 mph - N/A   Partly Cloudy
6:00 PM 35.6 °F 31.7 °F 23.0 °F 60% 30.48 in 15.0 mi WSW 4.6 mph - N/A   Mostly Cloudy
7:00 PM 41 °F - 23 °F 35% 30.50 in 15 mi West 4.6 mph - -   Mostly Cloudy
7:00 PM 35.6 °F 31.7 °F 23.0 °F 60% 30.50 in 15.0 mi West 4.6 mph - N/A   Mostly Cloudy
8:00 PM 35.6 °F 32.8 °F 21.2 °F 56% 30.51 in 15.0 mi West 3.5 mph - N/A   Mostly Cloudy
9:00 PM 33.8 °F - 23.0 °F 65% 30.53 in 15.0 mi West 2.3 mph - N/A   Mostly Cloudy
10:00 PM 33.8 °F 30.8 °F 23.0 °F 65% 30.54 in 15.0 mi West 3.5 mph - N/A   Mostly Cloudy
11:00 PM 33.8 °F 30.8 °F 24.8 °F 70% 30.55 in 15.0 mi WSW 3.5 mph - N/A   Mostly Cloudy